Weather reports worldwide

Advertisment
Safford, az, United States of America (2074852): temperature & dewpoint: 30.05.2020 12:00:00 - 05.06.2020 12:00:00 (MST)Safford, az, United States of America (2074852): wind speed & gusts: 30.05.2020 12:00:00 - 05.06.2020 12:00:00 (MST)Safford, az, United States of America (2074852): wind direction: 30.05.2020 12:00:00 - 05.06.2020 12:00:00 (MST)Safford, az, United States of America (2074852): reduced air pressure: 30.05.2020 12:00:00 - 05.06.2020 12:00:00 (MST)Safford, az, United States of America (2074852): visibility: 30.05.2020 12:00:00 - 05.06.2020 12:00:00 (MST)
Date & Time tt [°C] td [°C] ff [km/h] ff [kn] fx [km/h] fx [kn] dd ppp [hPa] vv [km]
05.06.2020 12:00:00 41,1 4,4 13 7 - - S 1002,2 16
05.06.2020 11:00:00 38,3 4,4 11 6 - - S 1003,5 16
05.06.2020 10:00:00 36,7 4,4 13 7 - - SE 1003,9 16
05.06.2020 09:00:00 35,6 4,4 16 9 - - ESE 1004,2 16
05.06.2020 08:00:00 30,6 5,6 8 4 - - SSE 1004,8 16
05.06.2020 07:00:00 26,7 3,9 9 5 - - SE 1004,6 16
05.06.2020 06:00:00 23,9 3,3 0 0 - - N 1004,2 16
05.06.2020 05:00:00 22,2 2,8 8 4 - - SE 1003,8 16
05.06.2020 04:00:00 22,8 3,3 8 4 - - E 1003,3 16
05.06.2020 03:00:00 25,6 3,9 8 4 - - SSW 1003,2 16
05.06.2020 02:00:00 28,3 3,9 9 5 - - N 1003,0 16
05.06.2020 01:00:00 28,3 3,9 11 6 - - NW 1003,2 16
05.06.2020 00:00:00 30,0 3,9 13 7 - - NW 1003,2 16
04.06.2020 23:00:00 30,6 4,4 16 9 - - NW 1003,4 16
04.06.2020 22:00:00 32,2 4,4 15 8 - - WNW 1003,3 16
04.06.2020 21:00:00 35,0 4,4 15 8 - - NW 1002,4 16
04.06.2020 20:00:00 36,1 3,9 18 10 - - WNW 1001,9 16
04.06.2020 19:00:00 38,3 3,9 18 10 - - WNW 1001,6 16
04.06.2020 18:00:00 40,0 3,3 13 7 - - WNW 1001,6 16
04.06.2020 17:00:00 40,0 3,9 5 3 - - - 1001,9 16
04.06.2020 16:00:00 40,0 3,9 8 4 - - WSW 1002,3 16
04.06.2020 15:00:00 40,0 4,4 11 6 - - SSW 1002,9 16
04.06.2020 14:00:00 40,0 4,4 0 0 - - N 1003,9 16
04.06.2020 13:00:00 40,6 4,4 11 6 - - WNW 1004,8 16
04.06.2020 12:00:00 38,3 4,4 8 4 - - - 1005,6 16
04.06.2020 11:00:00 37,2 3,9 11 6 - - - 1006,1 16
04.06.2020 10:00:00 34,4 3,9 9 5 - - W 1006,8 16
04.06.2020 09:00:00 32,8 3,9 8 4 - - - 1007,2 16
04.06.2020 08:00:00 29,4 2,8 8 4 - - SSE 1007,4 16
04.06.2020 07:00:00 25,6 2,8 0 0 - - N 1007,1 16
04.06.2020 06:00:00 22,2 1,7 8 4 - - E 1006,5 16
04.06.2020 05:00:00 20,6 1,1 5 3 - - ENE 1006,2 16
04.06.2020 04:00:00 23,3 1,7 8 4 - - S 1005,8 16
04.06.2020 03:00:00 26,1 1,7 9 5 - - N 1005,5 16
04.06.2020 02:00:00 27,8 1,7 11 6 - - NNW 1005,2 16
04.06.2020 01:00:00 27,8 2,2 15 8 - - WNW 1005,4 16
04.06.2020 00:00:00 27,8 2,8 15 8 - - NW 1005,7 16
03.06.2020 23:00:00 31,1 3,3 21 11 - - WNW 1005,5 16
03.06.2020 22:00:00 31,1 3,3 16 9 - - NW 1005,5 16
03.06.2020 21:00:00 32,2 2,2 15 8 - - NW 1004,7 16
03.06.2020 20:00:00 35,6 1,7 18 10 - - NW 1004,1 16
03.06.2020 19:00:00 37,8 1,7 24 13 - - NW 1003,9 16
03.06.2020 18:00:00 39,4 2,8 16 9 - - W 1004,0 16
03.06.2020 17:00:00 40,6 2,8 22 12 - - WNW 1004,0 16
03.06.2020 16:00:00 39,4 2,8 15 8 - - W 1004,9 16
03.06.2020 15:00:00 39,4 3,3 13 7 - - WSW 1005,2 16
03.06.2020 14:00:00 40,0 3,3 13 7 - - W 1006,0 16
03.06.2020 13:00:00 38,3 5,0 8 4 - - - 1007,1 16
03.06.2020 12:00:00 36,7 6,7 5 3 - - - 1007,8 16
03.06.2020 11:00:00 35,0 6,7 5 3 - - - 1008,9 16
03.06.2020 10:00:00 33,9 7,8 5 3 - - - 1009,3 16
03.06.2020 09:00:00 31,7 8,3 11 6 - - E 1009,6 16
03.06.2020 08:00:00 29,4 8,3 13 7 - - SE 1009,9 16
03.06.2020 07:00:00 25,6 7,2 9 5 - - SSE 1009,6 16
03.06.2020 06:00:00 20,6 5,6 0 0 - - N 1009,7 16
03.06.2020 05:00:00 20,6 6,1 9 5 - - SSW 1009,0 16
03.06.2020 04:00:00 20,6 5,0 8 4 - - E 1008,9 16
03.06.2020 03:00:00 22,8 6,1 0 0 - - N 1008,6 16
03.06.2020 02:00:00 24,4 6,7 5 3 - - S 1008,4 16
03.06.2020 01:00:00 25,0 6,1 9 5 - - N 1008,6 16
03.06.2020 00:00:00 27,2 6,7 11 6 - - NNW 1008,8 16
02.06.2020 23:00:00 28,3 7,2 5 3 - - WNW 1008,9 16
02.06.2020 22:00:00 31,1 6,7 15 8 48 26 N 1008,5 16
02.06.2020 21:00:00 32,2 7,8 29 16 59 32 NNE 1007,9 16
02.06.2020 20:00:00 32,8 7,8 29 16 - - NNE 1007,7 16
02.06.2020 19:00:00 35,0 5,6 22 12 59 32 NNW 1007,1 16
02.06.2020 18:00:00 37,8 4,4 18 10 - - W 1006,1 16
02.06.2020 17:00:00 38,3 5,6 24 13 50 27 NNE 1005,9 16
02.06.2020 16:00:00 38,3 6,7 31 17 - - NNE 1006,0 16
02.06.2020 15:00:00 37,8 5,0 8 4 - - - 1006,4 16
02.06.2020 14:00:00 37,8 6,7 9 5 - - - 1007,3 16
02.06.2020 13:00:00 36,1 6,7 8 4 - - S 1008,2 16
02.06.2020 12:00:00 36,1 7,2 0 0 - - N 1009,2 16
02.06.2020 11:00:00 34,4 7,2 9 5 - - - 1010,1 16
02.06.2020 10:00:00 33,3 7,8 13 7 - - NW 1010,5 16
02.06.2020 09:00:00 32,2 7,2 0 0 - - N 1011,0 16
02.06.2020 08:00:00 28,3 7,8 5 3 - - SSE 1011,6 16
02.06.2020 07:00:00 25,6 6,7 15 8 - - SE 1010,7 16
02.06.2020 06:00:00 22,8 7,2 11 6 - - S 1010,1 16
02.06.2020 05:00:00 23,3 6,1 11 6 - - NE 1009,3 16
02.06.2020 04:00:00 26,7 7,8 8 4 - - NNW 1008,8 16
02.06.2020 03:00:00 27,2 7,8 13 7 - - NW 1008,4 16
02.06.2020 02:00:00 27,8 7,8 18 10 - - WNW 1008,5 16
02.06.2020 01:00:00 29,4 7,2 18 10 - - NNW 1008,6 16
02.06.2020 00:00:00 29,4 7,8 26 14 - - NNW 1008,7 16
01.06.2020 23:00:00 29,4 8,3 26 14 - - NNW 1008,3 16
01.06.2020 22:00:00 32,2 5,6 21 11 - - WNW 1007,5 16
01.06.2020 21:00:00 32,8 5,6 15 8 - - NNW 1007,4 16
01.06.2020 20:00:00 32,2 -0,6 13 7 - - W 1006,1 16
01.06.2020 19:00:00 35,6 0,6 11 6 - - SSW 1004,8 16
01.06.2020 18:00:00 36,7 0,6 - - - - - 1005,0 16
01.06.2020 17:00:00 37,2 1,7 9 5 - - S 1004,9 16
01.06.2020 16:00:00 38,9 2,2 9 5 - - NNE 1005,0 16
01.06.2020 15:00:00 37,8 2,2 9 5 - - - 1006,5 16
01.06.2020 14:00:00 36,1 3,9 13 7 - - SE 1007,8 16
01.06.2020 13:00:00 36,1 3,3 15 8 - - SSE 1009,0 16
01.06.2020 12:00:00 34,4 3,3 5 3 - - - 1010,0 16
01.06.2020 11:00:00 33,9 3,3 15 8 - - S 1010,7 16
01.06.2020 10:00:00 32,2 3,3 21 11 - - SSE 1011,0 16
01.06.2020 09:00:00 30,0 3,9 13 7 - - S 1011,6 16
01.06.2020 08:00:00 27,8 3,9 13 7 - - SSE 1011,9 16
01.06.2020 07:00:00 25,0 3,9 8 4 - - SSE 1011,2 16
01.06.2020 06:00:00 22,2 4,4 13 7 - - S 1010,8 16
01.06.2020 05:00:00 23,9 1,7 16 9 - - ESE 1009,3 16
01.06.2020 04:00:00 25,6 1,7 11 6 - - E 1008,5 16
01.06.2020 03:00:00 22,8 5,6 15 8 - - E 1008,6 16
01.06.2020 02:00:00 22,8 5,0 0 0 - - N 1008,4 16
01.06.2020 01:00:00 23,9 5,6 0 0 - - N 1008,4 16
01.06.2020 00:00:00 26,1 5,6 9 5 - - W 1008,0 16
31.05.2020 23:00:00 27,2 6,1 0 0 - - N 1007,7 16
31.05.2020 22:00:00 28,9 7,2 13 7 - - NW 1007,6 16
31.05.2020 21:00:00 30,6 7,2 18 10 - - NW 1006,9 16
31.05.2020 20:00:00 31,7 7,2 22 12 - - NW 1005,5 16
31.05.2020 19:00:00 35,6 -0,6 13 7 - - SE 1004,3 16
31.05.2020 18:00:00 37,8 -0,6 21 11 - - SE 1003,7 16
31.05.2020 17:00:00 39,4 1,7 24 13 - - SSW 1003,6 16
31.05.2020 16:00:00 38,9 0,6 16 9 - - E 1004,4 16
31.05.2020 15:00:00 38,3 1,1 0 0 - - N 1005,8 16
31.05.2020 14:00:00 39,4 2,2 26 14 - - SSE 1006,8 16
31.05.2020 13:00:00 38,3 2,8 26 14 - - S 1007,6 16
31.05.2020 12:00:00 36,7 3,3 26 14 - - SSE 1008,5 16
31.05.2020 11:00:00 35,6 3,9 18 10 - - SE 1009,4 16
31.05.2020 10:00:00 33,3 3,3 16 9 - - SE 1010,0 16
31.05.2020 09:00:00 31,1 2,8 22 12 - - SSE 1010,3 16
31.05.2020 08:00:00 28,9 2,8 21 11 - - SSE 1010,5 16
31.05.2020 07:00:00 26,7 3,3 16 9 - - SSE 1010,1 16
31.05.2020 06:00:00 27,2 1,1 18 10 - - ESE 1009,4 16
31.05.2020 05:00:00 26,7 1,7 21 11 - - ESE 1008,3 16
31.05.2020 04:00:00 27,2 2,8 22 12 - - E 1007,5 16
31.05.2020 03:00:00 24,4 4,4 5 3 - - E 1006,9 16
31.05.2020 02:00:00 23,9 4,4 9 5 - - ENE 1006,9 16
31.05.2020 01:00:00 27,2 5,0 0 0 - - N 1006,6 16
31.05.2020 00:00:00 28,9 5,0 13 7 - - W 1006,5 16
30.05.2020 23:00:00 30,6 5,0 18 10 - - WNW 1006,9 16
30.05.2020 22:00:00 31,7 5,0 8 4 - - WNW 1006,4 16
30.05.2020 21:00:00 33,3 5,0 18 10 - - WNW 1005,8 16
30.05.2020 20:00:00 34,4 2,8 9 5 - - SE 1004,4 16
30.05.2020 19:00:00 36,7 2,2 15 8 - - S 1003,5 16
30.05.2020 18:00:00 37,8 1,7 16 9 - - S 1003,6 16
30.05.2020 17:00:00 39,4 1,7 24 13 - - SSW 1003,6 16
30.05.2020 16:00:00 38,9 1,7 21 11 - - S 1004,3 16
30.05.2020 15:00:00 39,4 1,7 9 5 - - ESE 1005,1 16
30.05.2020 14:00:00 38,9 2,8 8 4 - - - 1006,6 16
30.05.2020 13:00:00 38,9 2,2 28 15 - - SE 1007,8 16
30.05.2020 12:00:00 37,8 4,4 21 11 - - SSW 1008,8 16

tt = temperature
td = dewpoint
ff = wind speed
fx = gusts
dd = wind direction
ppp = reduced air pressure
vv = visibility

Next stations